Location: Kielce
(50.8833°N, 20.6167°E)
Time: 21:43:23
(UTC+02:00)

SR - Pass Details

Date: 25 April 2021
Orbit: 573 x 882 km, 66.7° (Epoch: 09 May)

Event Time Altitude Azimuth Distance (km) Brightness Sun altitude
Rises 14:44:17 0° 322° (NW) 3,485 ? 44.3°
Reaches altitude 10° 14:46:50 10° 324° (NW) 2,528 ? 44.0°
Maximum altitude 14:52:44 75° 50° (NE) 876 ? 43.3°
Drops below altitude 10° 14:58:15 10° 136° (SE) 2,370 ? 42.7°
Sets 15:00:35 0° 138° (SE) 3,251 ? 42.4°
